Vorticity
2 9 4 10 14 2 -2 -7 11 6 5 4 1 10 13 29 13 30 9 5 20 29 0 0 18 11 4 1 5 1 -16 -18 6 14 9 7 13 30 22 11 6 7 11 9
-32 15 18 -4 4 8 -5 5 6 6 6 4 1 7 12 26 23 9 22 1 15 8 6 1 9 4 4 11 3 14 28 13 -2 7 14 12 1 4 15 19 11 15 16 14
7 21 -3 5 10 16 7 17 6 5 4 7 5 5 9 14 12 11 9 24 -1 17 17 -12 20 17 -4 5 -8 -14 1 4 -9 -1 12 4 7 9 11 9 11 11 6 3
44 1 11 -9 7 3 14 9 8 2 5 3 5 2 5 13 22 16 8 4 28 9 3 27 20 4 -3 5 14 2 5 5 4 -3 15 6 6 11 9 10 6 10 12 2
6 4 13 -4 30 -3 -1 15 1 -1 4 5 1 4 6 7 17 23 14 6 7 25 9 8 7 17 10 9 15 23 24 18 15 16 15 8 6 7 12 11 14 18 4 16
-12 17 19 -13 2 9 22 13 2 7 6 4 4 1 3 5 6 21 26 14 5 8 24 6 6 10 6 8 12 14 15 11 14 8 7 13 17 15 12 7 12 18 14 13
-15 -2 5 9 -0 4 13 5 2 5 3 4 0 6 3 5 6 11 19 33 14 10 4 21 25 -1 1 -1 7 2 4 6 7 7 7 5 1 4 4 4 5 5 5 6
21 22 8 -2 10 24 7 8 4 9 0 -2 1 -2 3 9 2 5 11 18 26 20 9 6 4 19 32 9 1 5 2 -1 0 4 5 5 7 8 7 5 6 8 7 4
6 2 25 7 6 32 1 5 5 10 4 -0 -1 -3 1 6 6 3 5 10 16 27 28 14 8 4 3 7 25 26 1 4 5 5 4 6 9 10 11 9 11 14 10 12
9 -24 26 5 11 27 6 5 9 7 9 4 2 1 -1 4 5 6 -1 3 14 6 16 26 23 17 9 8 5 3 5 8 9 8 7 9 4 3 3 13 10 13 11 11
2 11 4 8 11 20 6 7 8 6 6 5 5 5 4 2 2 1 4 2 3 7 9 14 22 31 21 19 15 10 10 10 9 10 12 12 9 10 9 8 9 10 10 10
-3 -2 12 2 14 2 10 6 6 7 5 2 2 3 6 4 6 2 2 3 3 2 5 4 4 9 16 17 27 27 20 23 18 14 10 13 16 13 9 7 6 7 8 7
8 20 14 18 22 -4 9 6 5 6 4 6 6 4 6 6 6 5 4 5 1 5 2 1 3 9 4 4 5 7 5 6 15 21 17 12 13 14 13 13 14 13 11 10
9 10 2 14 30 -5 8 5 5 6 3 3 5 8 6 7 8 8 6 5 5 5 5 3 6 4 6 5 4 7 1 8 5 9 8 11 15 16 19 22 23 20 17 14
-1 7 10 6 31 -5 7 5 5 4 0 3 6 4 3 6 7 11 7 6 7 4 6 5 6 6 10 6 7 7 7 6 7 6 6 6 6 11 10 9 9 11 16 16
7 1 16 8 37 -2 5 4 5 4 3 9 15 4 9 9 4 7 7 8 9 6 5 6 7 6 8 8 9 6 6 7 9 8 9 8 8 6 6 5 4 4 4 4
14 14 19 35 -1 5 5 14 9 7 15 6 6 4 5 8 5 4 8 10 6 7 6 7 7 7 8 9 7 6 8 10 11 10 9 9 9 8 8 6 6 4 4 4
14 1 19 23 5 -0 7 6 8 7 7 4 6 8 8 7 8 9 7 6 7 9 4 5 7 6 8 7 8 9 9 8 8 9 8 8 9 7 7 7 7 9 9 9
5 20 25 31 15 -1 6 5 4 2 5 12 8 7 4 8 5 7 7 7 7 5 5 7 10 7 10 10 10 8 8 7 8 8 8 9 10 9 9 8 8 9 9 10
14 4 -4 8 27 6 7 1 1 3 2 1 5 8 5 9 7 5 11 7 4 5 7 7 10 11 12 8 9 7 9 10 9 8 9 9 10 11 11 11 12 12 13 11
7 12 0 29 18 5 4 3 2 3 3 1 4 6 7 4 6 7 6 3 8 6 5 10 12 10 8 8 9 9 9 7 7 8 8 9 9 10 13 13 12 14 12 10
23 9 21 27 7 2 -0 -3 2 4 -3 6 5 5 7 6 5 7 6 7 9 11 11 10 11 8 8 8 8 7 7 7 6 7 6 7 9 10 13 12 13 13 14 12
17 7 7 20 -10 -7 -1 8 13 3 9 3 5 5 5 7 4 6 5 11 10 11 10 8 7 10 4 9 6 7 8 4 4 5 6 8 10 12 15 15 14 9 10 9
18 6 19 25 17 15 15 11 12 4 0 -0 2 5 4 3 5 6 8 9 10 10 8 8 8 3 7 5 6 8 5 3 5 6 8 9 15 16 14 10 10 12 9 9
16 15 13 13 14 2 20 3 10 8 6 7 8 7 10 5 6 6 11 8 9 8 8 9 4 4 7 5 4 0 4 3 5 5 8 12 13 16 13 12 9 8 12 18
-0 17 2 13 4 4 15 9 6 7 6 7 8 6 10 9 7 13 8 10 7 7 9 5 2 6 5 3 -0 5 4 2 3 5 11 14 14 13 12 10 7 10 15 31
19 18 18 8 13 12 8 7 7 6 5 7 10 9 13 8 8 10 10 8 8 9 7 2 4 5 5 2 0 3 4 1 4 7 12 14 15 14 9 12 11 18 16 24
Height
5537 5559 5577 5591 5606 5612 5619 5626 5632 5635 5636 5635 5632 5627 5619 5616 5613 5613 5613 5613 5613 5616 5617 5621 5623 5628 5631 5634 5638 5640 5643 5645 5649 5653 5655 5658 5660 5663 5665 5668 5672 5675 5679 5684
5529 5552 5568 5587 5598 5606 5612 5620 5626 5630 5632 5633 5630 5626 5621 5617 5613 5614 5615 5616 5617 5619 5622 5625 5627 5630 5634 5637 5639 5642 5645 5647 5650 5653 5656 5657 5659 5662 5665 5666 5669 5672 5676 5679
5530 5545 5566 5576 5594 5601 5610 5616 5622 5627 5629 5630 5630 5625 5622 5618 5615 5615 5616 5618 5619 5623 5625 5628 5630 5632 5637 5639 5642 5644 5647 5648 5650 5653 5655 5656 5658 5660 5662 5663 5665 5669 5670 5670
5530 5547 5559 5573 5586 5596 5605 5613 5617 5623 5626 5628 5628 5626 5623 5619 5616 5616 5616 5618 5620 5623 5626 5627 5630 5633 5637 5639 5641 5644 5646 5648 5650 5652 5653 5655 5656 5658 5659 5662 5663 5665 5667 5666
5527 5544 5559 5568 5579 5591 5601 5610 5614 5619 5623 5626 5627 5626 5624 5621 5616 5617 5618 5619 5621 5623 5626 5629 5631 5634 5637 5640 5641 5643 5644 5646 5648 5650 5651 5654 5655 5656 5657 5659 5660 5661 5661 5661
5527 5543 5548 5565 5578 5587 5596 5605 5610 5616 5621 5624 5626 5626 5626 5623 5620 5618 5618 5619 5622 5623 5626 5629 5631 5634 5637 5639 5641 5642 5643 5645 5646 5649 5650 5652 5654 5654 5654 5655 5655 5657 5656 5657
5525 5538 5553 5563 5574 5583 5595 5601 5607 5613 5618 5622 5625 5626 5627 5625 5623 5620 5620 5620 5621 5625 5625 5629 5630 5634 5636 5638 5640 5642 5643 5644 5646 5648 5649 5650 5650 5650 5650 5651 5652 5652 5653 5653
5525 5538 5550 5561 5569 5577 5589 5597 5604 5611 5616 5620 5623 5626 5627 5627 5625 5623 5622 5622 5622 5623 5625 5627 5629 5632 5634 5637 5638 5640 5641 5643 5644 5645 5645 5646 5646 5645 5646 5645 5647 5646 5646 5646
5524 5534 5546 5557 5566 5574 5585 5593 5601 5609 5614 5619 5622 5625 5627 5628 5628 5626 5626 5624 5623 5623 5624 5625 5628 5631 5631 5633 5635 5636 5638 5638 5639 5639 5640 5641 5640 5640 5640 5639 5640 5639 5638 5638
5527 5539 5548 5554 5563 5573 5583 5592 5599 5606 5611 5616 5620 5624 5627 5629 5628 5628 5629 5627 5626 5625 5624 5624 5626 5627 5629 5630 5631 5632 5633 5633 5634 5634 5635 5636 5635 5633 5632 5632 5635 5630 5630 5628
5528 5538 5548 5554 5563 5574 5583 5591 5598 5604 5609 5614 5618 5622 5625 5628 5629 5630 5631 5631 5629 5628 5627 5627 5626 5626 5627 5626 5628 5628 5629 5630 5629 5629 5629 5631 5627 5626 5626 5626 5624 5622 5620 5619
5527 5538 5547 5556 5563 5575 5582 5590 5597 5603 5609 5613 5617 5620 5624 5626 5628 5630 5630 5631 5630 5630 5629 5629 5627 5626 5626 5625 5624 5624 5624 5625 5625 5625 5624 5622 5621 5619 5618 5616 5615 5613 5613 5610
5532 5540 5547 5555 5564 5574 5581 5589 5595 5601 5607 5611 5616 5619 5623 5624 5626 5629 5631 5630 5630 5630 5630 5629 5628 5627 5626 5625 5624 5623 5622 5621 5620 5619 5619 5616 5614 5612 5609 5608 5607 5605 5603 5600
5534 5540 5547 5555 5564 5573 5581 5589 5595 5601 5605 5609 5614 5618 5621 5623 5625 5627 5628 5629 5628 5628 5628 5627 5626 5626 5625 5623 5623 5622 5621 5619 5618 5616 5614 5612 5609 5605 5603 5601 5598 5595 5592 5589
5536 5542 5548 5554 5563 5573 5581 5587 5593 5598 5605 5607 5611 5615 5619 5621 5623 5624 5626 5626 5626 5626 5625 5624 5624 5624 5624 5622 5620 5618 5617 5615 5614 5612 5609 5607 5604 5600 5596 5593 5589 5586 5583 5579
5537 5543 5549 5555 5563 5573 5580 5587 5594 5598 5602 5606 5610 5613 5617 5619 5621 5622 5624 5624 5624 5624 5624 5623 5623 5622 5620 5618 5616 5614 5612 5610 5608 5605 5603 5600 5597 5593 5589 5586 5582 5577 5573 5569
5538 5544 5549 5556 5563 5573 5582 5588 5593 5597 5600 5604 5607 5611 5614 5617 5619 5620 5621 5622 5622 5622 5622 5620 5620 5618 5617 5614 5612 5610 5607 5604 5601 5598 5595 5592 5588 5584 5580 5575 5570 5566 5563 5559
5538 5545 5551 5557 5564 5572 5580 5586 5591 5594 5599 5603 5606 5609 5612 5614 5616 5617 5618 5618 5618 5618 5618 5616 5615 5614 5612 5610 5607 5604 5602 5598 5595 5591 5587 5582 5577 5572 5568 5563 5558 5554 5549 5545
5539 5547 5552 5558 5565 5571 5579 5584 5588 5592 5598 5600 5603 5606 5608 5611 5612 5613 5615 5616 5616 5616 5614 5612 5611 5609 5607 5605 5602 5599 5595 5591 5588 5583 5579 5573 5568 5563 5558 5551 5546 5542 5536 5530
5540 5547 5553 5557 5564 5571 5578 5583 5587 5590 5594 5597 5600 5602 5605 5609 5609 5610 5612 5612 5612 5610 5610 5608 5607 5604 5601 5599 5596 5592 5588 5584 5580 5575 5570 5564 5559 5553 5546 5539 5534 5527 5523 5516
5538 5546 5553 5558 5564 5570 5575 5581 5585 5588 5592 5595 5597 5599 5602 5604 5607 5608 5608 5607 5607 5606 5606 5603 5601 5598 5595 5593 5589 5585 5581 5576 5572 5566 5560 5554 5548 5541 5534 5526 5518 5512 5507 5500
5539 5544 5549 5555 5562 5568 5573 5578 5583 5587 5590 5593 5595 5597 5599 5601 5602 5604 5604 5604 5603 5601 5600 5598 5595 5593 5590 5587 5582 5578 5573 5568 5563 5557 5550 5543 5535 5527 5520 5513 5506 5499 5492 5484
5536 5542 5548 5555 5561 5565 5571 5575 5580 5585 5587 5590 5592 5594 5596 5596 5598 5599 5600 5599 5598 5596 5594 5591 5590 5587 5584 5580 5575 5571 5565 5559 5552 5546 5538 5530 5521 5512 5505 5497 5490 5483 5475 5465
5534 5540 5546 5552 5558 5565 5571 5575 5579 5582 5583 5586 5588 5589 5591 5592 5593 5594 5594 5594 5592 5590 5589 5586 5583 5580 5576 5572 5568 5562 5556 5549 5542 5535 5525 5516 5507 5497 5487 5479 5472 5465 5455 5443
5532 5538 5544 5551 5558 5564 5568 5572 5575 5579 5580 5583 5583 5584 5587 5587 5588 5589 5589 5588 5586 5585 5583 5580 5576 5573 5569 5564 5559 5553 5546 5539 5531 5522 5513 5503 5494 5485 5475 5463 5454 5444 5432 5420
5532 5539 5546 5552 5557 5562 5567 5569 5572 5575 5576 5578 5579 5580 5582 5582 5583 5584 5583 5582 5580 5578 5576 5574 5570 5566 5562 5556 5550 5544 5536 5528 5519 5509 5499 5489 5480 5471 5463 5453 5442 5430 5417 5406
5530 5537 5543 5548 5555 5560 5564 5566 5568 5570 5572 5574 5575 5577 5577 5577 5577 5578 5577 5575 5573 5571 5569 5566 5563 5558 5553 5548 5542 5534 5525 5516 5505 5495 5485 5475 5465 5455 5447 5439 5427 5414 5403 5394